Regional Weather Roundup
Issued by NWS

Home | Current Version | Previous Version | Text Only | Print | Product List | Glossary On
Versions: 1 2 3 4 5 6 7 8 9 10 11 12 13 14 15 16 17 18 19 20 21 22 23 24 25 26 27 28 29 30 31 32 33 34 35 36 37 38 39 40 41 42 43 44 45 46 47 48 49 50
000
ASUS43 KLMK 292010
RWRKY
KENTUCKY REGIONAL WEATHER ROUNDUP
NATIONAL WEATHER SERVICE LOUISVILLE KY
400 PM EDT WED MAR 29 2017

NOTE "FAIR" INDICATES FEW OR NO CLOUDS BELOW 12,000 FEET
WITH NO SIGNIFICANT WEATHER AND/OR OBSTRUCTIONS TO VISIBILITY.

KYZ001>023-026-027-061>063-070>075-292100-
WESTERN AND SOUTH CENTRAL KENTUCKY

CITY           SKY/WX    TMP DP  RH WIND       PRES   REMARKS
PADUCAH        PTSUNNY   74  58  57 SE15      29.88F
HENDERSON      SUNNY     70  54  56 E13G22    29.94F
OWENSBORO      MOSUNNY   72  53  51 SE12      29.98F
HOPKINSVILLE   MOSUNNY   74  58  56 E12       29.95F
BOWLING GREEN  PTSUNNY   74  54  49 NE7       30.01F
GLASGOW        SUNNY     74  55  51 E6        30.02S
$$

KYZ024-025-028>034-038-045-046-053-292100-
NORTH CENTRAL KENTUCKY

CITY           SKY/WX    TMP DP  RH WIND       PRES   REMARKS
LOUISVILLE/SDF PTSUNNY   65  47  52 VRB3      30.06F
LOUISVILLE/LOU MOSUNNY   65  50  58 E8        30.07F
FORT KNOX      SUNNY     65  51  60 E12       30.04S
$$

KYZ035>037-039>044-047>052-055>060-089>105-292100-
NORTHEAST KENTUCKY

CITY           SKY/WX    TMP DP  RH WIND       PRES   REMARKS
LEXINGTON      PTSUNNY   64  49  57 E16       30.08F
COVINGTON      PTSUNNY   56  44  64 E15       30.11F
FRANKFORT      MOSUNNY   64  48  56 E13       30.06F
$$

KYZ054-064>069-076>088-106>120-292100-
SOUTHEAST KENTUCKY

CITY           SKY/WX    TMP DP  RH WIND       PRES   REMARKS
JACKSON        SUNNY     65  49  56 CALM      30.09F
LONDON         SUNNY     69  49  48 VRB3      30.07F
SOMERSET       SUNNY     70  50  49 E5        30.05F
MIDDLESBORO    MOSUNNY   75  49  41 CALM      30.03F
MONTICELLO     CLEAR     71  55  56 NW8       30.05F
$$





USA.gov is the U.S. government's official web portal to all federal, state and local government web resources and services.